sat.trackr.live / text

‹ back to catalog

STARLINK-37279

NORAD 68768 · 2026-086C

PAYLOAD ACTIVE UNKNOWN

§ Identity

Operator
Country
US
Launch date
2026-04-19
Launch site
AFWTR
Launch vehicle
Mass (kg)
RCS (m²)

Purposes: comms

External: N2YO · Heavens-Above · Gunter

§ Orbital elements

Epoch: 2026-09-19T20:39:19.526688Z

Period
93.91 min
Inclination
97.2855°
Eccentricity
0.0000302
Mean motion
15.33454491 rev/d
Perigee alt
465.3 km
Apogee alt
465.7 km
Semi-major
6,843.7 km
B*
3.5320e-4
RAAN
298.2470°
Arg perigee
92.7699°
Mean anomaly
267.3578°
Rev number
2,358

§ Raw data

STARLINK-372791 68768U 26086C   26262.86064267  .00011348  00000+0  35320-3 0  99962 68768  97.2855 298.2470 0000302  92.7699 267.3578 15.33454491 23587

JSON: /api/v1/satellites/68768 · /tle

For live sub-satellite position, see the globe view (requires WebGL).

§ Visibility from observer

Set your observer location to see the next 7 days of passes ≥ 10°. The values pass through the URL so the page stays shareable.

No JS? Fill the form by hand. The geolocation button needs JavaScript.